カタログに戻る

STARLINK-3626

運用中通信VLEO
NORAD 51792·PAYLOAD·🇺🇸 United States

打ち上げ Feb 25, 2022 から Vandenberg Space Force Base

Loading…

次のパス (今後24時間)

TLE

最新Source: CelesTrak SupGP

元期: Sep 15, 2026, 02:14 UTC

1 51792C 22017AA  26258.09354167 -.00019377  00000+0 -58816-3 0  2581
2 51792  53.1581 205.1447 0001347  86.3715 216.2687 15.33548576    17

AllMySatでSTARLINK-3626をリアルタイム追跡

Download on the App Store